Downstream station:
SHEF ID: SDNK1 M CANEY C AT SEDAN, KS
STATION TYPE:
Regulating: Stage = 15.00, Flow = 4141
PRECIP STAGE RIV-FLOW BAT-LOAD
in ft cfs volt
Ccp-Rev Ccp-Rev Ccp-Rev Ccp-Rev
(US/Central)
10/27 00:00 0.00 4.62 2 12.49
10/27 01:00 0.00 4.62 2 12.47
10/27 02:00 0.00 4.62 2 12.46
10/27 03:00 0.01 4.63 2 12.42
10/27 04:00 0.06 4.63 2 12.40
10/27 05:00 0.16 4.65 2 12.38
10/27 06:00 0.14 4.67 2 12.37
10/27 07:00 0.03 4.70 2 12.36
10/27 08:00 0.05 4.72 3 12.35
10/27 09:00 0.08 4.72 3 12.34
10/27 10:00 0.13 4.74 3 12.33
10/27 11:00 0.12 4.77 3 12.37
10/27 12:00 0.01 4.79 3 12.54
10/27 13:00 0.00 4.80 4 12.92
10/27 14:00 0.02 4.80 4 13.10
10/27 15:00 0.00 4.79 3 13.25
10/27 16:00 0.00 4.78 3 13.39
10/27 17:00 0.08 4.79 3 13.14
10/27 18:00 0.01 4.79 3 13.00
10/27 19:00 0.00 4.78 3 12.82
10/27 20:00 0.00 4.78 3 12.65
10/27 21:00 0.00 4.78 3 12.57
10/27 22:00 0.00 4.77 3 12.53
10/27 23:00 0.00 4.76 3 12.51